Location: Newark
(45.2500°N, 7.5833°E)
Time: 11:13:19
(UTC+00:00)

Vanguard 3 - Pass Details

Date: 31 January 2020
Orbit: 508 x 3263 km, 33.3° (Epoch: 19 February)

Event Time Altitude Azimuth Distance (km) Brightness Sun altitude
Rises 17:11:12 0° 255° (WSW) 6,739 14.6 -6.8°
Reaches altitude 10° 17:15:30 10° 251° (WSW) 5,931 13.3 -7.6°
Maximum altitude 17:34:18 57° 180° (S) 3,594 10.5 -10.7°
Drops below altitude 10° 17:50:57 10° 109° (ESE) 5,331 10.8 -13.6°
Enters shadow 17:51:37 - 108° (ESE) 5,457 10.8 -13.7°
Sets 17:54:34 0° 105° (ESE) 6,050 - -14.2°
